NOAA 16 DEB, 41207

Orbit data source: Space-Track

NOAA 16 DEB, 41207 is space debris in SSO originally from a launch on Thu, 21 Sep 2000 UTC launched from the Air Force Western Test Range (AFWTR). Debris objects in space refer to the collection of defunct objects orbiting the Earth. Examples of debris include non-operational satellites, rocket bodies, and fragments generated from explosions, collisions, or faulty payload assembly.

Loading next visibility...
Identifier
41207, 2000-055DL
Orbit
SSO
Country
Flag of USUS
Related business
Manufacturer
Unknown
Mission
Spacecraft
Bus & Motor
Unknown
Mass
Unknown
Launch date (UTC)
2000-09-21 (25 years ago)
Launch vehicle
Unknown
Launch site
Air Force Western Test Range (AFWTR)
Object type
Payload
Rocket body
Debris
Shape & HBR
Unknown shape, 0.1 m
Radar Cross Section
Small (<0.1 m²)

Expand to show TLE details & history
Last TLE update: 4 days ago

TLE from 4 days ago
0 NOAA 16 DEB
1 41207U 00055DL  25307.11511327  .00021311  00000-0  34373-2 0  9992
2 41207  98.9127 184.5576 0036535 250.6163 109.1090 14.71003362519128
Epoch: 2025-11-03T02:45Z
TLE epoch observation values (Epoch: 2025-11-03T02:45:45.786Z)
Latitude
-0.00003°
Longitude
100.4957°
Altitude
669.345 km
Speed
7.518 km/s
True Right ascension
12h 18m 13s
True Declination
0° 00' 00"
Sunlit
Object was in daylight at epoch
Visualization orbit readout
Latitude
Unknown
Longitude
Unknown
Altitude
Unknown
Speed
Unknown
Apparent Right ascension
Unknown
Apparent Declination
Unknown
Sunlit
N/A
Visualization observer readout
Local Sidereal Time
08:39:33
Azimuth
Unknown
Elevation
Unknown
Doppler factor
Unknown
Orbital elements
Apogee altitude
680.663 km
Perigee altitude
629.272 km
Semi-major axis
7,033.105 km
Eccentricity
0.00365
Inclination
98.9127°
RAAN
184.5576°
Arg. of periapsis
250.6163°
True anomaly
109.504°
Mean anomaly
109.109°
Eccentric anomaly
109.30656°
Mean motion
3.67979 °/min
Orbital period
97.83 mins
BSTAR
0.0034373
Loading maneuver chart data...
Computing Atmospheric mass density...
Loading historical data...
Loading historical data...
Loading historical data...
Loading historical data...
Loading historical data...
Loading historical data...
Loading historical data...

Documentation

Showing up to 5 results
|